| time (UTC) | temp F | wind direction | speed MPH | gust MPH | rain 1hr in | rain 24hr in | rain mn in | humidity % | barometer mb |
| 20260509064400 | 44 | 18 | 0.0 | 1.0 | 0.00 | 0.00 | 0.00 | 71 | 1000.2 |
| 20260509063857 | 44 | 0 | 0.0 | 2.0 | 0.00 | 0.00 | 0.00 | 71 | 1000.1 |
| 20260509063353 | 44 | 36 | 0.0 | 2.0 | 0.00 | 0.00 | 0.00 | 71 | 1000.3 |
| 20260509062850 | 44 | 21 | 0.0 | 3.0 | 0.00 | 0.00 | 0.00 | 69 | 999.9 |
| 20260509062347 | 44 | 90 | 0.0 | 2.0 | 0.00 | 0.00 | 0.00 | 71 | 1000.2 |
| 20260509061844 | 44 | 30 | 0.0 | 2.0 | 0.00 | 0.00 | 0.00 | 70 | 1000.2 |
| 20260509061343 | 44 | 74 | 0.0 | 2.0 | 0.00 | 0.00 | 0.00 | 70 | 1000.1 |
| 20260509060839 | 44 | 53 | 2.0 | 2.0 | 0.00 | 0.00 | 0.00 | 70 | 1000.2 |
| 20260509060337 | 44 | 45 | 0.0 | 2.0 | 0.00 | 0.00 | 0.00 | 70 | 1000.2 |
| 20260509055832 | 44 | 0 | 1.0 | 2.0 | 0.00 | 0.00 | 0.00 | 69 | 1000.3 |
| 20260509055327 | 44 | 148 | 1.0 | 3.0 | 0.00 | 0.00 | 0.00 | 68 | 1000.5 |
| 20260509054825 | 45 | 149 | 4.0 | 5.0 | 0.00 | 0.00 | 0.00 | 67 | 1000.4 |
| 20260509054321 | 45 | 135 | 2.0 | 7.0 | 0.00 | 0.00 | 0.00 | 64 | 1000.3 |
| 20260509053820 | 45 | 148 | 2.0 | 5.0 | 0.00 | 0.00 | 0.00 | 64 | 1000.3 |
| 20260509053316 | 46 | 180 | 2.0 | 7.0 | 0.00 | 0.00 | 0.00 | 61 | 1000.2 |
| 20260509052814 | 46 | 103 | 2.0 | 5.0 | 0.00 | 0.00 | 0.00 | 61 | 1000.5 |
| 20260509052312 | 46 | 117 | 5.0 | 7.0 | 0.00 | 0.00 | 0.00 | 61 | 1000.6 |
| 20260509051809 | 46 | 117 | 2.0 | 4.0 | 0.00 | 0.00 | 0.00 | 66 | 1000.4 |
| 20260509051307 | 47 | 100 | 2.0 | 2.0 | 0.00 | 0.00 | 0.00 | 66 | 1000.5 |
| 20260509050804 | 47 | 8 | 0.0 | 1.0 | 0.00 | 0.00 | 0.00 | 63 | 1000.4 |
| 20260509050300 | 47 | 215 | 0.0 | 4.0 | 0.00 | 0.00 | 0.00 | 65 | 1000.5 |
| 20260509045757 | 47 | 189 | 3.0 | 4.0 | 0.00 | 0.00 | 0.00 | 56 | 1000.4 |
| 20260509045254 | 47 | 155 | 3.0 | 3.0 | 0.00 | 0.00 | 0.00 | 58 | 1000.8 |
| 20260509044752 | 47 | 147 | 3.0 | 6.0 | 0.00 | 0.00 | 0.00 | 59 | 1000.6 |
| 20260509044249 | 47 | 254 | 0.0 | 4.0 | 0.00 | 0.00 | 0.00 | 65 | 1000.6 |
| 20260509043745 | 47 | 264 | 1.0 | 2.0 | 0.00 | 0.00 | 0.00 | 64 | 1000.7 |
| 20260509043241 | 47 | 220 | 0.0 | 3.0 | 0.00 | 0.00 | 0.00 | 64 | 1000.6 |
| 20260509042737 | 47 | 196 | 4.0 | 4.0 | 0.00 | 0.00 | 0.00 | 64 | 1000.8 |
| 20260509042234 | 48 | 264 | 0.0 | 3.0 | 0.00 | 0.00 | 0.00 | 65 | 1000.8 |
| 20260509041731 | 48 | 206 | 0.0 | 2.0 | 0.00 | 0.00 | 0.00 | 65 | 1000.5 |
| 20260509041228 | 48 | 240 | 1.0 | 2.0 | 0.00 | 0.00 | 0.00 | 62 | 1000.8 |
| 20260509040726 | 48 | 220 | 0.0 | 3.0 | 0.00 | 0.00 | 0.00 | 62 | 1000.6 |
| 20260509040223 | 48 | 254 | 0.0 | 3.0 | 0.00 | 0.00 | 0.00 | 61 | 1001.0 |
| 20260509035719 | 48 | 180 | 3.0 | 5.0 | 0.00 | 0.00 | 0.00 | 63 | 1000.8 |
| 20260509035217 | 49 | 180 | 2.0 | 4.0 | 0.00 | 0.00 | 0.00 | 62 | 1000.7 |
| 20260509034714 | 49 | 178 | 4.0 | 4.0 | 0.00 | 0.00 | 0.00 | 62 | 1000.8 |
| 20260509034211 | 49 | 0 | 3.0 | 4.0 | 0.00 | 0.00 | 0.00 | 62 | 1000.9 |
| 20260509033708 | 49 | 228 | 0.0 | 3.0 | 0.00 | 0.00 | 0.00 | 62 | 1001.2 |
| 20260509033205 | 49 | 286 | 0.0 | 4.0 | 0.00 | 0.00 | 0.00 | 62 | 1001.1 |
| 20260509032702 | 49 | 258 | 4.0 | 5.0 | 0.00 | 0.00 | 0.00 | 61 | 1001.1 |
| 20260509032159 | 50 | 191 | 3.0 | 6.0 | 0.00 | 0.00 | 0.00 | 60 | 1001.0 |
| 20260509031657 | 50 | 265 | 3.0 | 6.0 | 0.00 | 0.00 | 0.00 | 58 | 1001.0 |
| 20260509031154 | 50 | 310 | 3.0 | 9.0 | 0.00 | 0.00 | 0.00 | 58 | 1001.2 |
| 20260509030652 | 50 | 225 | 2.0 | 7.0 | 0.00 | 0.00 | 0.00 | 59 | 1000.8 |
| 20260509030149 | 50 | 247 | 4.0 | 5.0 | 0.00 | 0.00 | 0.00 | 56 | 1001.0 |
| 20260509025645 | 50 | 208 | 3.0 | 5.0 | 0.00 | 0.00 | 0.00 | 56 | 1001.1 |
| 20260509025141 | 50 | 297 | 3.0 | 5.0 | 0.00 | 0.00 | 0.00 | 53 | 1001.3 |
| 20260509024636 | 51 | 180 | 4.0 | 6.0 | 0.00 | 0.00 | 0.00 | 54 | 1001.3 |
| 20260509024132 | 51 | 270 | 0.0 | 8.0 | 0.00 | 0.00 | 0.00 | 52 | 1001.3 |
| 20260509023631 | 51 | 18 | 0.0 | 5.0 | 0.00 | 0.00 | 0.00 | 50 | 1001.2 |
| 20260509023127 | 51 | 292 | 3.0 | 3.0 | 0.00 | 0.00 | 0.00 | 48 | 1001.3 |
| 20260509022623 | 52 | 242 | 4.0 | 5.0 | 0.00 | 0.00 | 0.00 | 50 | 1001.5 |
| 20260509022122 | 51 | 216 | 3.0 | 4.0 | 0.00 | 0.00 | 0.00 | 49 | 1001.1 |
| 20260509021618 | 51 | 180 | 3.0 | 9.0 | 0.00 | 0.00 | 0.00 | 49 | 1001.3 |
| 20260509021115 | 52 | 191 | 2.0 | 5.0 | 0.00 | 0.00 | 0.00 | 49 | 1001.3 |
| 20260509020614 | 51 | 264 | 3.0 | 4.0 | 0.00 | 0.00 | 0.00 | 48 | 1001.6 |
| 20260509020110 | 51 | 198 | 4.0 | 7.0 | 0.00 | 0.00 | 0.00 | 49 | 1001.4 |
| 20260509015609 | 51 | 203 | 1.0 | 6.0 | 0.00 | 0.00 | 0.00 | 48 | 1001.5 |
| 20260509015106 | 51 | 326 | 3.0 | 6.0 | 0.00 | 0.00 | 0.00 | 49 | 1001.8 |
| 20260509014602 | 51 | 236 | 5.0 | 5.0 | 0.00 | 0.00 | 0.00 | 50 | 1001.9 |
| 20260509014059 | 52 | 246 | 0.0 | 3.0 | 0.00 | 0.00 | 0.00 | 51 | 1001.7 |
| 20260509013556 | 51 | 281 | 4.0 | 5.0 | 0.00 | 0.00 | 0.00 | 50 | 1002.0 |
| 20260509013051 | 51 | 187 | 6.0 | 9.0 | 0.00 | 0.00 | 0.00 | 50 | 1002.1 |
| 20260509012549 | 51 | 263 | 1.0 | 6.0 | 0.00 | 0.00 | 0.00 | 48 | 1002.1 |
| 20260509012045 | 52 | 180 | 1.0 | 3.0 | 0.00 | 0.00 | 0.00 | 48 | 1002.0 |
| 20260509011543 | 52 | 239 | 2.0 | 4.0 | 0.00 | 0.00 | 0.00 | 46 | 1002.1 |
| 20260509011040 | 52 | 151 | 3.0 | 6.0 | 0.00 | 0.00 | 0.00 | 42 | 1002.2 |
| 20260509010538 | 52 | 199 | 4.0 | 5.0 | 0.00 | 0.00 | 0.00 | 38 | 1002.5 |
| 20260509010034 | 53 | 213 | 2.0 | 4.0 | 0.00 | 0.00 | 0.00 | 39 | 1002.3 |
| 20260509005533 | 53 | 114 | 8.0 | 8.0 | 0.00 | 0.00 | 0.00 | 38 | 1002.4 |
| 20260509005032 | 53 | 180 | 0.0 | 5.0 | 0.00 | 0.00 | 0.00 | 38 | 1002.5 |
| 20260509004530 | 53 | 175 | 2.0 | 4.0 | 0.00 | 0.00 | 0.00 | 38 | 1002.5 |
| 20260509004026 | 53 | 151 | 4.0 | 9.0 | 0.00 | 0.00 | 0.00 | 39 | 1002.6 |
| 20260509003525 | 54 | 29 | 2.0 | 4.0 | 0.00 | 0.00 | 0.00 | 37 | 1002.5 |
| 20260509003021 | 53 | 143 | 0.0 | 2.0 | 0.00 | 0.00 | 0.00 | 38 | 1002.9 |
| 20260509002519 | 53 | 102 | 2.0 | 4.0 | 0.00 | 0.00 | 0.00 | 38 | 1003.0 |
| 20260509002016 | 53 | 66 | 0.0 | 3.0 | 0.00 | 0.00 | 0.00 | 38 | 1003.1 |
| 20260509001514 | 53 | 195 | 3.0 | 4.0 | 0.00 | 0.00 | 0.00 | 38 | 1003.2 |
| 20260509001009 | 54 | 161 | 2.0 | 5.0 | 0.00 | 0.00 | 0.00 | 38 | 1003.2 |
| 20260509000508 | 53 | 188 | 3.0 | 5.0 | 0.00 | 0.00 | 0.00 | 39 | 1003.2 |
| 20260509000004 | 53 | 203 | 1.0 | 3.0 | 0.00 | 0.00 | 0.00 | 38 | 1003.3 |
| 20260508235502 | 53 | 239 | 2.0 | 3.0 | 0.00 | 0.00 | 0.00 | 39 | 1003.4 |
| 20260508234958 | 53 | 172 | 0.0 | 3.0 | 0.00 | 0.00 | 0.00 | 38 | 1003.5 |
| 20260508234455 | 53 | 151 | 3.0 | 7.0 | 0.00 | 0.00 | 0.00 | 40 | 1003.5 |
| 20260508233952 | 52 | 107 | 0.0 | 4.0 | 0.00 | 0.00 | 0.00 | 38 | 1003.4 |
| 20260508233452 | 52 | 170 | 3.0 | 5.0 | 0.00 | 0.00 | 0.00 | 39 | 1003.7 |
| 20260508232948 | 51 | 270 | 0.0 | 2.0 | 0.00 | 0.00 | 0.00 | 40 | 1003.7 |
| 20260508232445 | 51 | 90 | 0.0 | 5.0 | 0.00 | 0.00 | 0.00 | 40 | 1003.7 |
| 20260508231942 | 51 | 270 | 0.0 | 4.0 | 0.00 | 0.00 | 0.00 | 39 | 1003.8 |
| 20260508231439 | 52 | 188 | 5.0 | 5.0 | 0.00 | 0.00 | 0.00 | 39 | 1003.8 |
| 20260508230936 | 53 | 66 | 0.0 | 4.0 | 0.00 | 0.00 | 0.00 | 39 | 1004.1 |
| 20260508230433 | 52 | 140 | 3.0 | 4.0 | 0.00 | 0.00 | 0.00 | 39 | 1004.3 |
| 20260508225930 | 52 | 305 | 0.0 | 5.0 | 0.00 | 0.00 | 0.00 | 40 | 1004.2 |
| 20260508225427 | 51 | 148 | 3.0 | 4.0 | 0.00 | 0.00 | 0.00 | 40 | 1004.2 |
| 20260508224924 | 51 | 152 | 6.0 | 8.0 | 0.00 | 0.00 | 0.00 | 40 | 1004.4 |
| 20260508224422 | 52 | 175 | 0.0 | 3.0 | 0.00 | 0.00 | 0.00 | 40 | 1004.1 |
| 20260508223919 | 52 | 90 | 3.0 | 5.0 | 0.00 | 0.00 | 0.00 | 40 | 1004.2 |
| 20260508223417 | 52 | 261 | 0.0 | 4.0 | 0.00 | 0.00 | 0.00 | 39 | 1004.3 |
| 20260508222914 | 52 | 158 | 4.0 | 5.0 | 0.00 | 0.00 | 0.00 | 40 | 1004.7 |
| 20260508222411 | 54 | 135 | 0.0 | 5.0 | 0.00 | 0.00 | 0.00 | 37 | 1004.6 |
| 20260508221907 | 54 | 190 | 2.0 | 6.0 | 0.00 | 0.00 | 0.00 | 38 | 1004.8 |
| 20260508221403 | 53 | 276 | 3.0 | 4.0 | 0.00 | 0.00 | 0.00 | 38 | 1004.6 |
| 20260508220859 | 52 | 196 | 3.0 | 7.0 | 0.00 | 0.00 | 0.00 | 39 | 1004.7 |
| 20260508220356 | 52 | 157 | 5.0 | 10.0 | 0.00 | 0.00 | 0.00 | 38 | 1004.9 |
| 20260508215852 | 51 | 180 | 2.0 | 7.0 | 0.00 | 0.00 | 0.00 | 40 | 1004.7 |
| 20260508215349 | 51 | 158 | 5.0 | 9.0 | 0.00 | 0.00 | 0.00 | 42 | 1004.9 |
| 20260508214846 | 52 | 117 | 1.0 | 9.0 | 0.00 | 0.00 | 0.00 | 40 | 1005.0 |
| 20260508214344 | 53 | 101 | 2.0 | 4.0 | 0.00 | 0.00 | 0.00 | 40 | 1005.0 |
| 20260508213840 | 53 | 192 | 3.0 | 5.0 | 0.00 | 0.00 | 0.00 | 39 | 1005.1 |
| 20260508213337 | 53 | 341 | 2.0 | 4.0 | 0.00 | 0.00 | 0.00 | 41 | 1005.3 |
| 20260508212833 | 51 | 144 | 6.0 | 6.0 | 0.00 | 0.00 | 0.00 | 40 | 1005.4 |
| 20260508212330 | 52 | 146 | 3.0 | 7.0 | 0.00 | 0.00 | 0.00 | 41 | 1005.5 |
| 20260508211825 | 52 | 165 | 0.0 | 4.0 | 0.00 | 0.00 | 0.00 | 41 | 1005.5 |
| 20260508211321 | 51 | 94 | 3.0 | 6.0 | 0.00 | 0.00 | 0.00 | 43 | 1005.5 |
| 20260508210819 | 51 | 150 | 2.0 | 6.0 | 0.00 | 0.00 | 0.00 | 46 | 1005.6 |
| 20260508210315 | 50 | 167 | 3.0 | 7.0 | 0.00 | 0.00 | 0.00 | 44 | 1005.7 |
| 20260508205812 | 51 | 123 | 2.0 | 3.0 | 0.00 | 0.00 | 0.00 | 47 | 1006.1 |
| 20260508205308 | 50 | 157 | 3.0 | 5.0 | 0.00 | 0.00 | 0.00 | 46 | 1005.9 |
| 20260508204805 | 50 | 175 | 3.0 | 4.0 | 0.00 | 0.00 | 0.00 | 46 | 1006.0 |
| 20260508204302 | 49 | 146 | 4.0 | 10.0 | 0.00 | 0.00 | 0.00 | 47 | 1006.0 |
| 20260508203758 | 50 | 45 | 5.0 | 6.0 | 0.00 | 0.00 | 0.00 | 47 | 1006.1 |
| 20260508203254 | 50 | 103 | 2.0 | 6.0 | 0.00 | 0.00 | 0.00 | 50 | 1006.2 |
| 20260508202750 | 50 | 90 | 0.0 | 4.0 | 0.00 | 0.00 | 0.00 | 47 | 1006.4 |
| 20260508202247 | 49 | 119 | 2.0 | 7.0 | 0.00 | 0.00 | 0.00 | 50 | 1006.5 |
| 20260508201744 | 49 | 129 | 2.0 | 7.0 | 0.00 | 0.00 | 0.00 | 50 | 1006.5 |
| 20260508201241 | 51 | 137 | 4.0 | 6.0 | 0.00 | 0.00 | 0.00 | 46 | 1006.5 |
| 20260508200738 | 50 | 162 | 3.0 | 8.0 | 0.00 | 0.00 | 0.00 | 49 | 1006.6 |
| 20260508200234 | 49 | 139 | 6.0 | 9.0 | 0.00 | 0.00 | 0.00 | 48 | 1006.8 |
| 20260508195730 | 49 | 22 | 2.0 | 4.0 | 0.00 | 0.00 | 0.00 | 50 | 1006.5 |
| 20260508195227 | 49 | 184 | 2.0 | 4.0 | 0.00 | 0.00 | 0.00 | 55 | 1006.7 |
| 20260508194724 | 47 | 208 | 4.0 | 8.0 | 0.00 | 0.00 | 0.00 | 56 | 1006.9 |
| 20260508194220 | 48 | 199 | 4.0 | 4.0 | 0.00 | 0.00 | 0.00 | 55 | 1006.7 |
| 20260508193717 | 48 | 217 | 3.0 | 7.0 | 0.00 | 0.00 | 0.00 | 56 | 1006.9 |
| 20260508193214 | 48 | 175 | 2.0 | 3.0 | 0.00 | 0.00 | 0.00 | 60 | 1007.0 |
| 20260508192710 | 48 | 7 | 1.0 | 3.0 | 0.00 | 0.00 | 0.00 | 61 | 1006.9 |
| 20260508192208 | 47 | 81 | 0.0 | 5.0 | 0.00 | 0.00 | 0.00 | 61 | 1007.2 |
| 20260508191705 | 46 | 199 | 3.0 | 9.0 | 0.00 | 0.00 | 0.00 | 61 | 1007.2 |
| 20260508191201 | 47 | 180 | 1.0 | 6.0 | 0.00 | 0.00 | 0.00 | 62 | 1007.3 |
| 20260508190659 | 46 | 164 | 3.0 | 6.0 | 0.00 | 0.00 | 0.00 | 64 | 1007.3 |
| 20260508190155 | 46 | 229 | 5.0 | 5.0 | 0.00 | 0.00 | 0.00 | 66 | 1007.7 |
| 20260508185652 | 46 | 270 | 2.0 | 3.0 | 0.00 | 0.00 | 0.00 | 66 | 1007.6 |
| 20260508185149 | 45 | 210 | 3.0 | 5.0 | 0.00 | 0.00 | 0.00 | 67 | 1007.7 |
| 20260508184646 | 45 | 334 | 2.0 | 5.0 | 0.00 | 0.00 | 0.00 | 69 | 1007.6 |
| 20260508184144 | 44 | 266 | 2.0 | 6.0 | 0.00 | 0.00 | 0.00 | 68 | 1007.8 |
| 20260508183640 | 44 | 163 | 2.0 | 7.0 | 0.00 | 0.00 | 0.00 | 69 | 1008.0 |
| 20260508183136 | 43 | 217 | 2.0 | 4.0 | 0.00 | 0.00 | 0.00 | 69 | 1007.9 |
| 20260508182632 | 43 | 220 | 1.0 | 8.0 | 0.00 | 0.00 | 0.00 | 70 | 1008.1 |
| 20260508182129 | 44 | 300 | 1.0 | 4.0 | 0.00 | 0.00 | 0.00 | 69 | 1008.0 |
| 20260508181625 | 44 | 294 | 1.0 | 2.0 | 0.00 | 0.00 | 0.00 | 69 | 1008.2 |
| 20260508181123 | 44 | 255 | 0.0 | 4.0 | 0.00 | 0.00 | 0.00 | 71 | 1008.0 |
| 20260508180619 | 44 | 345 | 0.0 | 3.0 | 0.00 | 0.00 | 0.00 | 71 | 1008.4 |
| 20260508180115 | 43 | 277 | 1.0 | 3.0 | 0.00 | 0.00 | 0.00 | 72 | 1008.3 |
| 20260508175612 | 44 | 210 | 2.0 | 3.0 | 0.00 | 0.00 | 0.00 | 72 | 1008.4 |
| 20260508175109 | 43 | 270 | 0.0 | 2.0 | 0.00 | 0.00 | 0.00 | 71 | 1008.4 |
| 20260508174607 | 44 | 287 | 0.0 | 3.0 | 0.00 | 0.00 | 0.00 | 72 | 1008.3 |
| 20260508174103 | 43 | 184 | 0.0 | 7.0 | 0.00 | 0.00 | 0.00 | 71 | 1008.6 |
| 20260508173601 | 44 | 152 | 3.0 | 3.0 | 0.00 | 0.00 | 0.00 | 71 | 1008.5 |
| 20260508173056 | 43 | 60 | 1.0 | 4.0 | 0.00 | 0.00 | 0.00 | 72 | 1008.6 |
| 20260508172554 | 43 | 294 | 0.0 | 3.0 | 0.00 | 0.00 | 0.00 | 73 | 1008.8 |
| 20260508172050 | 43 | 291 | 1.0 | 2.0 | 0.00 | 0.00 | 0.00 | 73 | 1008.8 |
| 20260508171547 | 43 | 168 | 2.0 | 2.0 | 0.00 | 0.00 | 0.00 | 73 | 1008.7 |
| 20260508171043 | 43 | 334 | 1.0 | 4.0 | 0.00 | 0.00 | 0.00 | 74 | 1008.9 |
| 20260508170541 | 43 | 180 | 0.0 | 2.0 | 0.00 | 0.00 | 0.00 | 74 | 1008.8 |
| 20260508170038 | 42 | 186 | 1.0 | 3.0 | 0.00 | 0.00 | 0.00 | 73 | 1008.9 |
| 20260508165535 | 43 | 277 | 0.0 | 1.0 | 0.00 | 0.00 | 0.00 | 74 | 1009.0 |
| 20260508165032 | 43 | 142 | 2.0 | 2.0 | 0.00 | 0.00 | 0.00 | 73 | 1009.0 |
| 20260508164528 | 43 | 180 | 0.0 | 1.0 | 0.00 | 0.00 | 0.00 | 76 | 1008.9 |
| 20260508164025 | 43 | 270 | 0.0 | 0.0 | 0.00 | 0.00 | 0.00 | 77 | 1009.0 |
| 20260508163523 | 43 | 270 | 0.0 | 1.0 | 0.00 | 0.00 | 0.00 | 77 | 1009.1 |
| 20260508163019 | 42 | 15 | 0.0 | 1.0 | 0.00 | 0.00 | 0.00 | 77 | 1009.0 |
| 20260508162516 | 42 | 15 | 0.0 | 1.0 | 0.00 | 0.00 | 0.00 | 80 | 1009.0 |
| 20260508162013 | 41 | 0 | 0.0 | 2.0 | 0.00 | 0.00 | 0.00 | 80 | 1009.0 |
| 20260508161510 | 41 | 23 | 0.0 | 3.0 | 0.00 | 0.00 | 0.00 | 81 | 1009.3 |
| 20260508161007 | 41 | 40 | 1.0 | 3.0 | 0.00 | 0.00 | 0.00 | 81 | 1009.3 |
| 20260508160506 | 41 | 49 | 0.0 | 2.0 | 0.00 | 0.00 | 0.00 | 82 | 1009.5 |
| 20260508160002 | 41 | 23 | 3.0 | 3.0 | 0.00 | 0.00 | 0.00 | 83 | 1009.4 |
| 20260508155459 | 41 | 0 | 0.0 | 3.0 | 0.00 | 0.00 | 0.00 | 83 | 1009.5 |
| 20260508154955 | 41 | 66 | 0.0 | 1.0 | 0.00 | 0.00 | 0.00 | 85 | 1009.6 |
| 20260508154454 | 40 | 0 | 0.0 | 1.0 | 0.00 | 0.00 | 0.00 | 85 | 1009.6 |
| 20260508153950 | 40 | 66 | 0.0 | 0.0 | 0.00 | 0.00 | 0.00 | 85 | 1009.6 |
| 20260508153447 | 40 | 15 | 0.0 | 1.0 | 0.00 | 0.00 | 0.00 | 87 | 1009.9 |
| 20260508152943 | 40 | 23 | 1.0 | 2.0 | 0.00 | 0.00 | 0.00 | 86 | 1009.5 |
| 20260508152440 | 40 | 15 | 0.0 | 0.0 | 0.00 | 0.00 | 0.00 | 87 | 1009.7 |
| 20260508151936 | 39 | 35 | 0.0 | 1.0 | 0.00 | 0.00 | 0.00 | 87 | 1009.9 |
| 20260508151433 | 39 | 33 | 0.0 | 0.0 | 0.00 | 0.00 | 0.00 | 88 | 1010.1 |
| 20260508150929 | 38 | 66 | 0.0 | 1.0 | 0.00 | 0.00 | 0.00 | 88 | 1009.7 |
| 20260508150426 | 38 | 29 | 0.0 | 0.0 | 0.00 | 0.00 | 0.00 | 89 | 1010.1 |
| 20260508145922 | 38 | 63 | 0.0 | 0.0 | 0.00 | 0.00 | 0.00 | 89 | 1010.2 |
| 20260508145419 | 37 | 0 | 0.0 | 1.0 | 0.00 | 0.00 | 0.00 | 88 | 1010.0 |
| 20260508144915 | 37 | 29 | 0.0 | 0.0 | 0.00 | 0.00 | 0.00 | 88 | 1010.3 |
| 20260508144413 | 37 | 35 | 0.0 | 0.0 | 0.00 | 0.00 | 0.00 | 89 | 1010.2 |
| 20260508143910 | 38 | 66 | 0.0 | 1.0 | 0.00 | 0.00 | 0.00 | 88 | 1010.2 |
| 20260508143408 | 38 | 40 | 0.0 | 0.0 | 0.00 | 0.00 | 0.00 | 88 | 1010.4 |
| 20260508142904 | 38 | 40 | 0.0 | 1.0 | 0.00 | 0.00 | 0.00 | 88 | 1010.6 |
| 20260508142401 | 38 | 75 | 0.0 | 0.0 | 0.00 | 0.00 | 0.00 | 88 | 1010.5 |
| 20260508141857 | 37 | 75 | 0.0 | 0.0 | 0.00 | 0.00 | 0.00 | 88 | 1010.7 |
| 20260508141354 | 37 | 75 | 0.0 | 0.0 | 0.00 | 0.00 | 0.00 | 89 | 1010.7 |
| 20260508140852 | 37 | 69 | 1.0 | 2.0 | 0.00 | 0.00 | 0.00 | 88 | 1010.7 |
| 20260508140349 | 38 | 23 | 0.0 | 0.0 | 0.00 | 0.00 | 0.00 | 88 | 1011.0 |
| 20260508135844 | 37 | 23 | 0.0 | 1.0 | 0.00 | 0.00 | 0.00 | 87 | 1011.0 |
| 20260508135341 | 38 | 75 | 0.0 | 0.0 | 0.00 | 0.00 | 0.00 | 88 | 1011.0 |
| 20260508134837 | 37 | 75 | 0.0 | 1.0 | 0.00 | 0.00 | 0.00 | 89 | 1010.9 |
| 20260508134334 | 37 | 66 | 0.0 | 0.0 | 0.00 | 0.00 | 0.00 | 89 | 1010.9 |
| 20260508133831 | 37 | 15 | 0.0 | 0.0 | 0.00 | 0.00 | 0.00 | 89 | 1011.0 |
| 20260508133329 | 37 | 12 | 1.0 | 1.0 | 0.00 | 0.00 | 0.00 | 89 | 1011.3 |
| 20260508132826 | 37 | 15 | 0.0 | 1.0 | 0.00 | 0.00 | 0.00 | 87 | 1011.4 |
| 20260508132323 | 38 | 40 | 0.0 | 0.0 | 0.00 | 0.00 | 0.00 | 88 | 1011.2 |
| 20260508131820 | 38 | 173 | 0.0 | 0.0 | 0.00 | 0.00 | 0.00 | 88 | 1011.3 |
| 20260508131315 | 37 | 173 | 0.0 | 0.0 | 0.00 | 0.00 | 0.00 | 88 | 1011.2 |
| 20260508130812 | 37 | 49 | 0.0 | 1.0 | 0.00 | 0.00 | 0.00 | 87 | 1011.4 |
| 20260508130309 | 38 | 105 | 0.0 | 1.0 | 0.00 | 0.00 | 0.00 | 87 | 1011.3 |
| 20260508125805 | 37 | 15 | 0.0 | 0.0 | 0.00 | 0.00 | 0.00 | 87 | 1011.6 |
| 20260508125305 | 37 | 15 | 0.0 | 0.0 | 0.00 | 0.00 | 0.00 | 87 | 1011.4 |
| 20260508124800 | 37 | 15 | 0.0 | 0.0 | 0.00 | 0.00 | 0.00 | 88 | 1011.6 |
| 20260508124256 | 37 | 29 | 0.0 | 1.0 | 0.00 | 0.00 | 0.00 | 88 | 1011.5 |
| 20260508123755 | 37 | 35 | 0.0 | 2.0 | 0.00 | 0.00 | 0.00 | 88 | 1011.5 |
| 20260508123253 | 37 | 29 | 0.0 | 0.0 | 0.00 | 0.00 | 0.00 | 88 | 1011.8 |
| 20260508122748 | 37 | 0 | 0.0 | 0.0 | 0.00 | 0.00 | 0.00 | 87 | 1011.5 |
| 20260508122245 | 37 | 66 | 0.0 | 1.0 | 0.00 | 0.00 | 0.00 | 87 | 1011.5 |
| 20260508121743 | 38 | 15 | 0.0 | 0.0 | 0.00 | 0.00 | 0.00 | 87 | 1011.9 |
| 20260508121242 | 38 | 7 | 0.0 | 1.0 | 0.00 | 0.00 | 0.00 | 87 | 1011.8 |
| 20260508120738 | 38 | 35 | 0.0 | 1.0 | 0.00 | 0.00 | 0.00 | 86 | 1011.9 |
| 20260508120237 | 38 | 14 | 0.0 | 1.0 | 0.00 | 0.00 | 0.00 | 86 | 1011.8 |
| 20260508115734 | 39 | 15 | 0.0 | 1.0 | 0.00 | 0.00 | 0.00 | 85 | 1012.1 |
| 20260508115231 | 39 | 29 | 0.0 | 1.0 | 0.00 | 0.00 | 0.00 | 85 | 1012.3 |
| 20260508114727 | 39 | 7 | 1.0 | 2.0 | 0.00 | 0.00 | 0.00 | 85 | 1012.1 |
| 20260508114224 | 39 | 7 | 0.0 | 1.0 | 0.00 | 0.00 | 0.00 | 85 | 1012.2 |
| 20260508113721 | 40 | 11 | 1.0 | 1.0 | 0.00 | 0.00 | 0.00 | 84 | 1012.4 |
| 20260508113220 | 40 | 23 | 1.0 | 1.0 | 0.00 | 0.00 | 0.00 | 83 | 1012.4 |
| 20260508112715 | 40 | 23 | 1.0 | 2.0 | 0.00 | 0.00 | 0.00 | 83 | 1012.5 |
| 20260508112212 | 40 | 15 | 0.0 | 0.0 | 0.00 | 0.00 | 0.00 | 83 | 1012.4 |
| 20260508111709 | 41 | 7 | 0.0 | 1.0 | 0.00 | 0.00 | 0.00 | 83 | 1012.6 |
| 20260508111207 | 41 | 0 | 0.0 | 1.0 | 0.00 | 0.00 | 0.00 | 83 | 1012.6 |
| 20260508110704 | 41 | 15 | 0.0 | 0.0 | 0.00 | 0.00 | 0.00 | 82 | 1012.8 |
| 20260508110201 | 41 | 255 | 0.0 | 3.0 | 0.00 | 0.00 | 0.00 | 82 | 1012.5 |
| 20260508105700 | 41 | 180 | 0.0 | 1.0 | 0.00 | 0.00 | 0.00 | 82 | 1012.8 |
| 20260508105158 | 41 | 0 | 0.0 | 4.0 | 0.00 | 0.00 | 0.00 | 82 | 1012.8 |
| 20260508104655 | 41 | 9 | 0.0 | 3.0 | 0.00 | 0.00 | 0.00 | 82 | 1012.7 |
| 20260508104152 | 41 | 260 | 2.0 | 3.0 | 0.00 | 0.00 | 0.00 | 81 | 1013.1 |
| 20260508103649 | 41 | 274 | 2.0 | 4.0 | 0.00 | 0.00 | 0.00 | 81 | 1012.9 |
| 20260508103146 | 41 | 331 | 3.0 | 3.0 | 0.00 | 0.00 | 0.00 | 81 | 1012.8 |
| 20260508102643 | 41 | 5 | 0.0 | 3.0 | 0.00 | 0.00 | 0.00 | 80 | 1013.0 |
| 20260508102141 | 42 | 0 | 1.0 | 3.0 | 0.00 | 0.00 | 0.00 | 79 | 1013.0 |
| 20260508101638 | 42 | 262 | 0.0 | 0.0 | 0.00 | 0.00 | 0.00 | 78 | 1013.0 |
| 20260508101136 | 42 | 233 | 0.0 | 3.0 | 0.00 | 0.00 | 0.00 | 78 | 1013.1 |
| 20260508100633 | 42 | 311 | 0.0 | 4.0 | 0.00 | 0.00 | 0.00 | 78 | 1013.0 |
| 20260508100131 | 42 | 174 | 3.0 | 3.0 | 0.00 | 0.00 | 0.00 | 77 | 1013.2 |
| 20260508095627 | 42 | 203 | 0.0 | 4.0 | 0.00 | 0.00 | 0.00 | 76 | 1012.9 |
| 20260508095124 | 43 | 259 | 0.0 | 4.0 | 0.00 | 0.00 | 0.00 | 75 | 1012.8 |
| 20260508094621 | 43 | 190 | 2.0 | 2.0 | 0.00 | 0.00 | 0.00 | 74 | 1013.2 |
| 20260508094118 | 43 | 294 | 0.0 | 2.0 | 0.00 | 0.00 | 0.00 | 73 | 1013.0 |
| 20260508093615 | 43 | 283 | 2.0 | 4.0 | 0.00 | 0.00 | 0.00 | 73 | 1013.0 |
| 20260508093113 | 43 | 183 | 3.0 | 4.0 | 0.00 | 0.00 | 0.00 | 73 | 1013.2 |
| 20260508092610 | 43 | 170 | 3.0 | 4.0 | 0.00 | 0.00 | 0.00 | 73 | 1013.3 |
| 20260508092108 | 44 | 249 | 0.0 | 2.0 | 0.00 | 0.00 | 0.00 | 72 | 1013.2 |
| 20260508091605 | 44 | 255 | 0.0 | 3.0 | 0.00 | 0.00 | 0.00 | 70 | 1013.1 |
| 20260508091102 | 44 | 183 | 3.0 | 4.0 | 0.00 | 0.00 | 0.00 | 66 | 1013.2 |
| 20260508090600 | 44 | 175 | 0.0 | 3.0 | 0.00 | 0.00 | 0.00 | 57 | 1013.1 |
| 20260508090056 | 44 | 180 | 2.0 | 4.0 | 0.00 | 0.00 | 0.00 | 57 | 1013.0 |
| 20260508085553 | 45 | 184 | 2.0 | 5.0 | 0.00 | 0.00 | 0.00 | 58 | 1013.1 |
| 20260508085050 | 45 | 139 | 4.0 | 4.0 | 0.00 | 0.00 | 0.00 | 57 | 1013.1 |
| 20260508084547 | 45 | 170 | 3.0 | 9.0 | 0.00 | 0.00 | 0.00 | 56 | 1013.2 |
| 20260508084044 | 45 | 162 | 2.0 | 4.0 | 0.00 | 0.00 | 0.00 | 56 | 1013.4 |
| 20260508083541 | 45 | 180 | 2.0 | 4.0 | 0.00 | 0.00 | 0.00 | 56 | 1013.3 |
| 20260508083038 | 45 | 196 | 3.0 | 5.0 | 0.00 | 0.00 | 0.00 | 56 | 1013.2 |
| 20260508082534 | 45 | 151 | 2.0 | 6.0 | 0.00 | 0.00 | 0.00 | 56 | 1013.1 |
| 20260508082031 | 45 | 146 | 0.0 | 3.0 | 0.00 | 0.00 | 0.00 | 57 | 1013.4 |
| 20260508081529 | 45 | 143 | 2.0 | 3.0 | 0.00 | 0.00 | 0.00 | 57 | 1013.2 |
| 20260508081025 | 45 | 116 | 0.0 | 5.0 | 0.00 | 0.00 | 0.00 | 57 | 1013.4 |
| 20260508080523 | 45 | 160 | 3.0 | 5.0 | 0.00 | 0.00 | 0.00 | 57 | 1013.6 |
| 20260508080020 | 45 | 152 | 2.0 | 11.0 | 0.00 | 0.16 | 0.16 | 56 | 1013.4 |
| 20260508075516 | 45 | 126 | 0.0 | 5.0 | 0.00 | 0.16 | 0.16 | 58 | 1013.5 |
| 20260508075014 | 45 | 190 | 3.0 | 6.0 | 0.00 | 0.16 | 0.16 | 58 | 1013.7 |
| 20260508074512 | 45 | 83 | 1.0 | 5.0 | 0.00 | 0.16 | 0.16 | 58 | 1013.5 |
| 20260508074008 | 44 | 129 | 2.0 | 3.0 | 0.00 | 0.16 | 0.16 | 59 | 1013.7 |
| 20260508073505 | 45 | 195 | 0.0 | 5.0 | 0.00 | 0.16 | 0.16 | 59 | 1013.5 |
| 20260508073003 | 45 | 135 | 2.0 | 3.0 | 0.00 | 0.16 | 0.16 | 60 | 1013.6 |
| 20260508072458 | 45 | 112 | 2.0 | 4.0 | 0.00 | 0.16 | 0.16 | 59 | 1013.7 |
| 20260508071956 | 44 | 132 | 2.0 | 4.0 | 0.00 | 0.16 | 0.16 | 59 | 1013.8 |
| 20260508071454 | 45 | 155 | 3.0 | 4.0 | 0.00 | 0.16 | 0.16 | 60 | 1013.7 |
| 20260508070951 | 44 | 153 | 3.0 | 5.0 | 0.00 | 0.16 | 0.16 | 61 | 1014.0 |
| 20260508070449 | 44 | 148 | 2.0 | 3.0 | 0.00 | 0.16 | 0.16 | 61 | 1013.8 |
| 20260508065947 | 44 | 40 | 1.0 | 9.0 | 0.00 | 0.16 | 0.16 | 61 | 1014.0 |
| 20260508065444 | 44 | 169 | 5.0 | 5.0 | 0.00 | 0.16 | 0.16 | 62 | 1013.9 |
| 20260508064943 | 44 | 132 | 2.0 | 6.0 | 0.00 | 0.16 | 0.16 | 62 | 1013.6 |